Port Heiden, AK

3:09 PM AKDT on October 17, 2017 (GMT -0800)
Port Heiden

Weather History for PAPH - October, 2012

Change the Weather History Date:

Wednesday, October 10, 2012

  Actual Average Record
Temperature  
Mean Temperature 52 °F -  
Max Temperature 59 °F 44 °F 59 °F (2012)
Min Temperature 46 °F 33 °F 23 °F (1996)
Degree Days  
Heating Degree Days 12    
Growing Degree Days 2 (Base 50)    
Moisture  
Dew Point 40 °F    
Average Humidity 58    
Maximum Humidity 76    
Minimum Humidity 40    
Precipitation  
Precipitation 0.04 in - - ()
Sea Level Pressure  
Sea Level Pressure 29.79 in    
Wind  
Wind Speed 6 mph (NE)    
Max Wind Speed 17 mph    
Max Gust Speed 22 mph    
Visibility 10 miles    
Events      
Averages and records for this station are not official NWS values.
T = Trace of Precipitation, MM = Missing Value Source: NWS Daily Summary

Daily Weather History Graph

Daily Weather History Graph

Search for Another Location

Airport or City:

Trip Planner

Search our weather history database for the weather conditions in past years. The results will help you decide how hot, cold, wet, or windy it might be!

Date:

Astronomy

Oct. 10, 2012 Rise Set
Actual Time 8:58 AM AKDT 7:43 PM AKDT
Civil Twilight 8:20 AM AKDT 8:21 PM AKDT
Nautical Twilight 7:36 AM AKDT 9:05 PM AKDT
Astronomical Twilight 6:51 AM AKDT 9:49 PM AKDT
Moon 2:50 AM AKDT (10/10) 5:40 PM AKDT (10/10)
Length of Visible Light 12h 01m
Length of Day
10h 44m
Waning Crescent, 26% of the Moon is Illuminated
Oct 10
Waning Crescent
Oct 15
New
Oct 21
First Quarter
Oct 29
Full
Nov 6
Last Quarter

Hourly Weather History & Observations

Time (AKDT) Temp. Windchill Dew Point Humidity Pressure Visibility Wind Dir Wind Speed Gust Speed Precip Events Conditions
12:16 AM 53.6 °F - 37.4 °F 54% 29.92 in 10.0 mi Calm Calm - N/A   Clear
12:36 AM 50.0 °F - 37.4 °F 62% 29.92 in 10.0 mi Calm Calm - N/A   Clear
12:56 AM 48.2 °F - 37.4 °F 66% 29.91 in 10.0 mi Calm Calm - N/A   Clear
1:16 AM 50.0 °F - 37.4 °F 62% 29.91 in 10.0 mi Calm Calm - N/A   Clear
1:36 AM 48.2 °F - 37.4 °F 66% 29.91 in 10.0 mi NNW 6.9 mph - N/A   Clear
1:56 AM 51.8 °F - 37.4 °F 58% 29.90 in 10.0 mi North 5.8 mph - N/A   Clear
2:16 AM 51.8 °F - 37.4 °F 58% 29.90 in 10.0 mi North 4.6 mph - N/A   Clear
2:36 AM 51.8 °F - 37.4 °F 58% 29.89 in 10.0 mi NE 5.8 mph - N/A   Clear
2:56 AM 55.4 °F - 39.2 °F 54% 29.88 in 10.0 mi Calm Calm - N/A   Clear
3:16 AM 57.2 °F - 37.4 °F 48% 29.88 in 10.0 mi Calm Calm - N/A   Clear
3:36 AM 55.4 °F - 37.4 °F 51% 29.88 in 10.0 mi South 3.5 mph - N/A   Clear
3:56 AM 53.6 °F - 37.4 °F 54% 29.87 in 10.0 mi Calm Calm - N/A   Clear
4:16 AM 55.4 °F - 37.4 °F 51% 29.87 in 10.0 mi SSE 3.5 mph - N/A   Partly Cloudy
4:36 AM 51.8 °F - 37.4 °F 58% 29.86 in 10.0 mi NW 3.5 mph - N/A   Clear
4:56 AM 55.4 °F - 37.4 °F 51% 29.85 in 10.0 mi Calm Calm - N/A   Clear
5:16 AM 57.2 °F - 37.4 °F 48% 29.85 in 10.0 mi Calm Calm - N/A   Clear
5:36 AM 55.4 °F - 35.6 °F 47% 29.85 in 10.0 mi East 8.1 mph - N/A   Clear
5:56 AM 55.4 °F - 37.4 °F 51% 29.84 in 10.0 mi SSW 8.1 mph - N/A   Clear
6:16 AM 57.2 °F - 37.4 °F 48% 29.83 in 10.0 mi WSW 4.6 mph - N/A   Clear
6:36 AM 55.4 °F - 35.6 °F 47% 29.83 in 10.0 mi WNW 6.9 mph - N/A   Clear
6:56 AM 53.6 °F - 35.6 °F 51% 29.83 in 10.0 mi West 3.5 mph - N/A   Clear
7:16 AM 53.6 °F - 35.6 °F 51% 29.82 in 10.0 mi Calm Calm - N/A   Clear
7:36 AM 53.6 °F - 37.4 °F 54% 29.82 in 10.0 mi NW 6.9 mph - N/A   Clear
7:56 AM 55.4 °F - 37.4 °F 51% 29.82 in 10.0 mi ESE 3.5 mph - N/A   Clear
8:16 AM 55.4 °F - 37.4 °F 51% 29.81 in 10.0 mi East 10.4 mph - N/A   Clear
8:56 AM 57.2 °F - 37.4 °F 48% 29.82 in 10.0 mi SSE 4.6 mph - N/A   Clear
9:16 AM 60.8 °F - 37.4 °F 42% 29.82 in 10.0 mi NE 3.5 mph - N/A   Clear
9:36 AM 57.2 °F - 39.2 °F 51% 29.81 in 10.0 mi SE 4.6 mph - N/A   Clear
9:56 AM 59.0 °F - 39.2 °F 48% 29.81 in 10.0 mi North 5.8 mph - N/A   Clear
10:16 AM 55.4 °F - 39.2 °F 54% 29.81 in 10.0 mi WSW 4.6 mph - N/A   Clear
10:36 AM 55.4 °F - 39.2 °F 54% 29.82 in 10.0 mi Calm Calm - N/A   Clear
10:56 AM 57.2 °F - 39.2 °F 51% 29.82 in 10.0 mi Calm Calm - N/A   Clear
11:16 AM 57.2 °F - 41.0 °F 55% 29.81 in 10.0 mi NNE 10.4 mph - N/A   Clear
11:36 AM 55.4 °F - 39.2 °F 54% 29.80 in 10.0 mi NNE 16.1 mph - N/A   Clear
11:56 AM 55.4 °F - 41.0 °F 58% 29.80 in 10.0 mi NNE 15.0 mph - N/A   Clear
12:16 PM 59.0 °F - 39.2 °F 48% 29.80 in 10.0 mi NNE 13.8 mph - N/A   Clear
12:36 PM 59.0 °F - 41.0 °F 51% 29.81 in 10.0 mi NNE 9.2 mph - N/A   Clear
12:56 PM 59.0 °F - 39.2 °F 48% 29.80 in 10.0 mi NE 6.9 mph - N/A   Clear
1:16 PM 59.0 °F - 41.0 °F 51% 29.80 in 10.0 mi NNE 11.5 mph - N/A   Clear
1:36 PM 60.8 °F - 42.8 °F 52% 29.78 in 10.0 mi NNE 8.1 mph - N/A   Clear
1:56 PM 62.6 °F - 42.8 °F 48% 29.78 in 10.0 mi SE 4.6 mph - N/A   Clear
2:16 PM 64.4 °F - 39.2 °F 40% 29.77 in 10.0 mi East 15.0 mph - N/A   Clear
2:36 PM 62.6 °F - 42.8 °F 48% 29.77 in 10.0 mi ENE 9.2 mph - N/A   Clear
2:56 PM 59.0 °F - 44.6 °F 59% 29.76 in 10.0 mi NE 16.1 mph 19.6 mph N/A   Clear
3:16 PM 57.2 °F - 44.6 °F 63% 29.75 in 10.0 mi NE 17.3 mph - N/A   Clear
3:36 PM 57.2 °F - 42.8 °F 59% 29.75 in 10.0 mi NE 17.3 mph 21.9 mph N/A   Clear
4:16 PM 57.2 °F - 44.6 °F 63% 29.74 in 10.0 mi NE 13.8 mph - N/A   Clear
4:36 PM 57.2 °F - 44.6 °F 63% 29.73 in 10.0 mi NE 13.8 mph - 0.01 in   Clear
4:56 PM 59.0 °F - 44.6 °F 59% 29.72 in 10.0 mi NE 13.8 mph - 0.04 in   Clear
5:16 PM 59.0 °F - 44.6 °F 59% 29.72 in 10.0 mi NNE 11.5 mph - 0.01 in   Clear
5:36 PM 59.0 °F - 44.6 °F 59% 29.72 in 10.0 mi NNE 15.0 mph 18.4 mph 0.01 in   Clear
5:56 PM 59.0 °F - 44.6 °F 59% 29.72 in 10.0 mi NNE 11.5 mph - 0.01 in   Clear
6:16 PM 57.2 °F - 44.6 °F 63% 29.71 in 10.0 mi NE 10.4 mph - N/A   Clear
6:36 PM 57.2 °F - 44.6 °F 63% 29.71 in 10.0 mi NE 11.5 mph - N/A   Clear
6:56 PM 57.2 °F - 42.8 °F 59% 29.70 in 10.0 mi NE 15.0 mph - N/A   Clear
7:16 PM 55.4 °F - 42.8 °F 63% 29.70 in 10.0 mi NE 12.7 mph - N/A   Clear
7:36 PM 53.6 °F - 42.8 °F 67% 29.70 in 10.0 mi NE 10.4 mph - N/A   Clear
7:56 PM 51.8 °F - 41.0 °F 67% 29.71 in 10.0 mi NE 9.2 mph - N/A   Clear
8:16 PM 51.8 °F - 42.8 °F 71% 29.70 in 10.0 mi SE 4.6 mph - N/A   Clear
8:36 PM 51.8 °F - 39.2 °F 62% 29.69 in 10.0 mi NE 15.0 mph - N/A   Clear
8:56 PM 48.2 °F - 41.0 °F 76% 29.69 in 10.0 mi NE 16.1 mph - N/A   Clear
9:16 PM 48.2 °F - 39.2 °F 71% 29.69 in 10.0 mi NE 12.7 mph - N/A   Clear
9:36 PM 46.4 °F 40.7 °F 39.2 °F 76% 29.69 in 10.0 mi NE 12.7 mph - N/A   Clear
9:56 PM 46.4 °F 40.7 °F 39.2 °F 76% 29.68 in 10.0 mi NE 12.7 mph - N/A   Clear
10:16 PM 46.4 °F 41.1 °F 39.2 °F 76% 29.68 in 10.0 mi NNE 11.5 mph - N/A   Clear
10:36 PM 46.4 °F 41.5 °F 39.2 °F 76% 29.68 in 10.0 mi NE 10.4 mph - N/A   Clear
10:56 PM 46.4 °F 43.5 °F 39.2 °F 76% 29.69 in 10.0 mi ENE 5.8 mph - N/A   Clear
11:16 PM 46.4 °F 41.9 °F 39.2 °F 76% 29.69 in 10.0 mi NE 9.2 mph - N/A   Clear
11:36 PM 46.4 °F 42.9 °F 39.2 °F 76% 29.68 in 10.0 mi NE 6.9 mph - N/A   Clear
11:56 PM 46.4 °F 42.9 °F 39.2 °F 76% 29.67 in 10.0 mi NE 6.9 mph - N/A   Clear